Terminal Aerodrome Forecast
Issued by NWS

Home | Current Version | Previous Version | Text Only | Print | Product List | Glossary On
Versions: 1 2 3 4 5 6 7 8 9 10 11 12 13 14 15 16 17 18 19 20 21 22 23 24 25 26 27 28 29 30 31 32 33 34 35 36 37 38 39 40 41 42 43 44 45 46 47 48 49
000
FTAK31 PANC 030520
TAFADU
TAF
PADU 030520Z 0306/0406 36011KT P6SM SCT035
     FM030900 VRB05KT P6SM SCT035
     FM031800 10014G22KT P6SM BKN035 OVC200
     FM040000 11020G30KT P6SM VCSH BKN035 OVC150=

USA.gov is the U.S. government's official web portal to all federal, state and local government web resources and services.